Le nostre stazioni meteo in Italia

Pubblicità
Il mio iltempo24.it
Lulea/Kallax, Svezia (2186): Temperatura & dewpoint: 14.04.2018 20:00:00 - 20.04.2018 20:00:00 (CEST)Lulea/Kallax, Svezia (2186): velocità del vento & gusts: 14.04.2018 20:00:00 - 20.04.2018 20:00:00 (CEST)Lulea/Kallax, Svezia (2186): direzione del vento: 14.04.2018 20:00:00 - 20.04.2018 20:00:00 (CEST)Lulea/Kallax, Svezia (2186): reduced air pressure: 14.04.2018 20:00:00 - 20.04.2018 20:00:00 (CEST)Lulea/Kallax, Svezia (2186): visibility: 14.04.2018 20:00:00 - 20.04.2018 20:00:00 (CEST)Lulea/Kallax, Svezia (2186): precipitazioni: 14.04.2018 20:00:00 - 20.04.2018 20:00:00 (CEST)
Data & Tempo tt [°C] td [°C] ff [km/h] ff [kn] fx [km/h] fx [kn] dd ppp [hPa] vv [km] rr [mm]
20.04.2018 20:00:00 1,4 0,6 11 6 14 8 ESE 1005,3 40 -
20.04.2018 19:00:00 2,5 0,9 7 4 11 6 SE 1005,9 45 0,0
20.04.2018 18:00:00 4,0 1,7 7 4 14 8 S 1006,3 40 0,0
20.04.2018 17:00:00 6,1 2,2 7 4 22 12 S 1007,0 45 0,0
20.04.2018 16:00:00 7,5 3,0 7 4 18 10 SSE 1007,6 45 0,0
20.04.2018 15:00:00 9,6 4,2 4 2 11 6 SSE 1008,2 35 0,0
20.04.2018 14:00:00 10,0 4,4 5 3 14 8 NNE 1008,6 10 0,0
20.04.2018 13:00:00 7,0 3,6 11 6 22 12 NNE 1009,1 10 0,0
20.04.2018 12:00:00 5,8 3,1 11 6 22 12 N 1009,5 10 0,0
20.04.2018 11:00:00 6,0 3,7 8 4 22 12 N 1009,6 10 0,0
20.04.2018 10:00:00 4,3 2,8 11 6 14 8 NNO 1009,9 10 0,0
20.04.2018 09:00:00 4,7 2,6 4 2 7 4 ONO 1010,5 25 0,0
20.04.2018 08:00:00 2,3 1,3 4 2 11 6 OSO 1011,2 20 0,0
20.04.2018 07:00:00 0,9 0,3 7 4 22 12 SSO 1011,9 10 0,0
20.04.2018 06:00:00 1,1 0,4 14 8 22 12 S 1012,9 20 0,0
20.04.2018 05:00:00 1,1 0,2 14 8 22 12 SSE 1013,9 20 0,4
20.04.2018 04:00:00 1,3 0,4 18 10 22 12 SE 1015,6 7 2,0
20.04.2018 03:00:00 1,3 0,4 7 4 14 8 SSE 1017,7 9 0,8
20.04.2018 02:00:00 1,8 0,0 7 4 14 8 S 1018,5 7 1,0
20.04.2018 01:00:00 2,4 -0,5 14 8 18 10 SSE 1019,1 45 0,0
20.04.2018 00:00:00 1,5 -0,4 11 6 14 8 SSE 1020,1 50 0,0
19.04.2018 23:00:00 3,1 -0,7 4 2 11 6 SE 1021,4 45 0,0
19.04.2018 22:00:00 1,6 -0,6 7 4 11 6 SE 1022,1 45 0,0
19.04.2018 21:00:00 2,6 -0,8 7 4 14 8 S 1022,5 50 0,0
19.04.2018 20:00:00 4,2 -0,6 4 2 14 8 S 1022,7 50 0,0
19.04.2018 19:00:00 5,6 0,2 9 5 14 8 SE 1022,5 10 0,0
19.04.2018 18:00:00 6,6 0,3 5 3 14 8 SE 1023,1 10 0,0
19.04.2018 17:00:00 10,0 -0,2 15 8 22 12 ONO 1023,3 10 0,0
19.04.2018 16:00:00 9,2 -0,7 13 7 18 10 NNO 1023,6 10 0,0
19.04.2018 15:00:00 9,4 -0,8 8 4 18 10 NNO 1023,7 10 0,0
19.04.2018 14:00:00 9,7 -0,8 8 4 22 12 N 1023,5 10 0,0
19.04.2018 13:00:00 8,7 -0,9 15 8 25 14 N 1023,1 10 0,0
19.04.2018 12:00:00 8,2 -0,8 16 9 32 18 N 1023,0 10 0,0
19.04.2018 11:00:00 6,6 -0,6 18 10 29 16 NNO 1022,4 10 0,0
19.04.2018 10:00:00 7,0 -0,9 22 12 29 16 NNO 1021,7 55 0,0
19.04.2018 09:00:00 5,4 -0,7 16 9 29 16 NNO 1021,1 10 0,0
19.04.2018 08:00:00 4,3 -0,7 18 10 29 16 NNO 1020,5 50 0,0
19.04.2018 07:00:00 3,8 -0,8 22 12 25 14 NNO 1020,0 50 0,0
19.04.2018 06:00:00 3,6 -0,6 14 8 25 14 NNO 1019,2 45 0,0
19.04.2018 05:00:00 3,3 -0,5 22 12 25 14 NNO 1018,6 45 0,0
19.04.2018 04:00:00 2,7 -1,1 14 8 22 12 NO 1018,1 45 0,0
19.04.2018 03:00:00 3,9 -0,7 15 8 22 12 NNO 1017,4 10 0,0
19.04.2018 02:00:00 -0,7 -2,4 2 1 4 2 NO 1016,8 10 0,0
19.04.2018 01:00:00 -1,2 -2,6 2 1 4 2 NNO 1016,7 10 0,0
19.04.2018 00:00:00 -1,1 -2,8 2 1 4 2 SSE 1016,5 10 0,0
18.04.2018 23:00:00 -0,3 -2,4 5 3 7 4 SSE 1016,4 10 0,0
18.04.2018 22:00:00 0,0 -2,1 4 2 7 4 SSE 1016,3 10 0,0
18.04.2018 21:00:00 0,2 -2,2 4 2 7 4 SE 1016,4 10 0,0
18.04.2018 20:00:00 2,3 -1,7 8 4 14 8 SE 1016,5 10 0,0
18.04.2018 19:00:00 4,1 -1,5 9 5 14 8 SSE 1016,6 10 0,0
18.04.2018 18:00:00 5,8 -1,6 11 6 18 10 SSE 1016,7 10 0,0
18.04.2018 17:00:00 6,5 -2,1 13 7 18 10 S 1016,7 10 0,0
18.04.2018 16:00:00 8,8 -2,2 11 6 22 12 S 1017,2 10 0,0
18.04.2018 15:00:00 9,0 -2,3 15 8 22 12 S 1017,5 10 0,0
18.04.2018 14:00:00 8,9 -2,7 15 8 18 10 SSO 1017,7 10 0,0
18.04.2018 13:00:00 9,3 -2,3 9 5 18 10 SSE 1017,7 10 0,0
18.04.2018 12:00:00 9,3 -2,6 11 6 14 8 SE 1018,0 10 0,0
18.04.2018 11:00:00 8,0 -2,3 9 5 11 6 SE 1018,2 10 0,0
18.04.2018 10:00:00 7,3 -2,7 8 4 11 6 SE 1018,3 10 0,0
18.04.2018 09:00:00 2,5 -1,8 11 6 14 8 SE 1018,3 10 0,0
18.04.2018 08:00:00 0,3 -3,1 8 4 11 6 SE 1018,3 10 0,0
18.04.2018 07:00:00 -0,2 -3,9 4 2 7 4 SE 1018,5 10 0,0
18.04.2018 06:00:00 -2,0 -4,0 0 0 4 2 N 1018,3 10 0,0
18.04.2018 05:00:00 -2,8 -4,8 0 0 4 2 N 1018,5 10 0,0
18.04.2018 04:00:00 -2,0 -4,0 0 0 7 4 N 1018,6 10 0,0
18.04.2018 03:00:00 -1,5 -4,0 0 0 4 2 N 1018,5 10 0,0
18.04.2018 02:00:00 -0,7 -3,7 2 1 4 2 NO 1018,7 10 0,0
18.04.2018 01:00:00 -0,3 -2,8 2 1 4 2 NO 1018,8 10 0,0
18.04.2018 00:00:00 0,6 -3,0 0 0 4 2 N 1018,6 10 0,0
17.04.2018 23:00:00 1,0 -3,3 0 0 4 2 N 1018,5 10 0,0
17.04.2018 22:00:00 1,9 -3,2 2 1 4 2 NO 1018,2 10 0,0
17.04.2018 21:00:00 3,6 -2,2 4 2 7 4 - 1018,1 10 0,0
17.04.2018 20:00:00 6,9 -2,3 2 1 4 2 - 1017,8 10 0,0
17.04.2018 19:00:00 11,5 -3,4 4 2 11 6 - 1017,5 10 0,0
17.04.2018 18:00:00 12,1 -3,7 5 3 11 6 NNE 1017,4 10 0,0
17.04.2018 17:00:00 12,2 -3,6 5 3 14 8 NNE 1017,4 10 0,0
17.04.2018 16:00:00 11,9 -3,5 8 4 14 8 N 1017,4 10 0,0
17.04.2018 15:00:00 11,7 -3,1 9 5 14 8 NNE 1017,3 10 0,0
17.04.2018 14:00:00 11,2 -3,0 7 4 22 12 N 1017,3 65 0,0
17.04.2018 13:00:00 9,7 -2,3 11 6 22 12 NNO 1017,4 10 0,0
17.04.2018 12:00:00 8,9 -2,7 13 7 22 12 NNO 1017,4 10 0,0
17.04.2018 11:00:00 7,2 -2,5 11 6 22 12 N 1017,4 10 0,0
17.04.2018 10:00:00 6,3 -2,6 13 7 22 12 N 1017,1 10 0,0
17.04.2018 09:00:00 4,8 -2,5 13 7 22 12 N 1016,6 10 0,0
17.04.2018 08:00:00 3,5 -3,1 13 7 22 12 N 1016,3 10 0,0
17.04.2018 07:00:00 1,8 -3,5 11 6 18 10 N 1016,0 10 0,0
17.04.2018 06:00:00 1,0 -3,9 11 6 22 12 N 1015,6 10 0,0
17.04.2018 05:00:00 -1,4 -4,1 9 5 18 10 N 1015,3 10 0,0
17.04.2018 04:00:00 -1,0 -3,4 9 5 14 8 N 1015,2 10 0,0
17.04.2018 03:00:00 -3,2 -4,8 8 4 11 6 NNO 1015,3 10 0,0
17.04.2018 02:00:00 -2,7 -4,9 2 1 7 4 - 1015,2 10 0,0
17.04.2018 01:00:00 -2,1 -4,3 4 2 7 4 - 1015,1 10 0,0
17.04.2018 00:00:00 -2,1 -4,8 4 2 7 4 NO 1014,8 10 0,0
16.04.2018 23:00:00 -0,9 -3,6 0 0 4 2 N 1014,6 10 0,0
16.04.2018 22:00:00 0,2 -3,4 0 0 4 2 N 1014,6 10 0,0
16.04.2018 21:00:00 1,0 -3,5 2 1 7 4 - 1014,7 10 0,0
16.04.2018 20:00:00 2,9 -3,7 4 2 22 12 - 1014,5 10 0,0
16.04.2018 19:00:00 5,0 -2,8 8 4 14 8 SSE 1014,5 10 0,0
16.04.2018 18:00:00 3,2 -1,9 8 4 14 8 SE 1014,6 10 0,0
16.04.2018 17:00:00 4,6 -1,4 9 5 14 8 SE 1014,8 10 0,0
16.04.2018 16:00:00 6,7 -2,0 11 6 14 8 SE 1015,1 55 0,0
16.04.2018 15:00:00 8,2 -2,7 9 5 11 6 SSE 1015,4 10 0,0
16.04.2018 14:00:00 8,3 -3,6 9 5 14 8 SSE 1015,7 10 0,0
16.04.2018 13:00:00 7,4 -2,3 9 5 11 6 SE 1015,8 10 0,0
16.04.2018 12:00:00 6,9 -2,5 8 4 7 4 SE 1016,1 10 0,0
16.04.2018 11:00:00 6,6 -3,1 5 3 7 4 SE 1016,4 10 0,0
16.04.2018 10:00:00 6,3 -4,2 4 2 7 4 ONO 1016,4 10 0,0
16.04.2018 09:00:00 2,9 -4,8 2 1 7 4 - 1016,3 10 0,0
16.04.2018 08:00:00 -0,3 -4,5 5 3 7 4 NNO 1016,4 10 0,0
16.04.2018 07:00:00 -1,9 -5,6 4 2 7 4 - 1016,5 10 0,0
16.04.2018 06:00:00 -4,1 -6,6 5 3 7 4 NNO 1016,5 10 0,0
16.04.2018 05:00:00 -5,4 -7,4 5 3 7 4 N 1016,5 10 0,0
16.04.2018 04:00:00 -4,1 -6,6 4 2 7 4 NO 1017,0 10 0,0
16.04.2018 03:00:00 -4,6 -7,0 5 3 7 4 N 1017,4 10 0,0
16.04.2018 02:00:00 -3,1 -5,7 2 1 7 4 S 1017,6 10 0,0
16.04.2018 01:00:00 -2,3 -5,8 2 1 7 4 NO 1017,9 10 0,0
16.04.2018 00:00:00 -1,3 -5,2 4 2 4 2 NO 1018,1 10 0,0
15.04.2018 23:00:00 -0,9 -4,9 2 1 7 4 N 1018,3 10 0,0
15.04.2018 22:00:00 -0,5 -4,4 0 0 7 4 N 1018,7 10 0,0
15.04.2018 21:00:00 0,0 -3,9 4 2 4 2 SE 1018,9 10 0,0
15.04.2018 20:00:00 2,4 -3,3 2 1 4 2 SSE 1019,2 10 0,0
15.04.2018 19:00:00 4,2 -3,6 4 2 7 4 SSE 1019,4 10 0,0
15.04.2018 18:00:00 4,5 -3,3 5 3 7 4 SE 1019,7 10 0,0
15.04.2018 17:00:00 7,0 -5,4 5 3 7 4 SE 1020,3 10 0,0
15.04.2018 16:00:00 7,3 -5,7 4 2 11 6 - 1020,8 10 0,0
15.04.2018 15:00:00 6,3 -4,8 5 3 14 8 SSE 1021,5 10 0,0
15.04.2018 14:00:00 5,7 -3,9 8 4 14 8 SE 1022,2 10 0,0
15.04.2018 13:00:00 6,5 -4,9 11 6 18 10 ESE 1022,5 10 0,0
15.04.2018 12:00:00 5,9 -4,8 11 6 22 12 ENE 1022,6 10 0,0
15.04.2018 11:00:00 5,4 -5,0 13 7 22 12 E 1022,9 10 0,0
15.04.2018 10:00:00 4,1 -4,9 9 5 14 8 N 1022,9 10 0,0
15.04.2018 09:00:00 2,5 -4,5 9 5 14 8 N 1023,0 10 0,0
15.04.2018 08:00:00 1,5 -4,8 11 6 22 12 NE 1022,8 10 0,0
15.04.2018 07:00:00 0,4 -5,2 9 5 14 8 N 1022,9 10 0,0
15.04.2018 06:00:00 -1,4 -5,8 8 4 22 12 N 1022,8 10 0,0
15.04.2018 05:00:00 -2,1 -5,8 13 7 22 12 N 1022,4 10 0,0
15.04.2018 04:00:00 -0,6 -5,0 11 6 18 10 N 1022,2 10 0,0
15.04.2018 03:00:00 -2,0 -5,3 9 5 18 10 NNO 1022,1 10 0,0
15.04.2018 02:00:00 -1,8 -5,0 11 6 14 8 N 1021,9 10 0,0
15.04.2018 01:00:00 -3,1 -5,7 8 4 14 8 NO 1021,5 10 0,0
15.04.2018 00:00:00 -2,8 -5,0 8 4 14 8 NNO 1021,2 10 0,0
14.04.2018 23:00:00 -2,5 -4,4 9 5 14 8 NNO 1020,8 10 0,0
14.04.2018 22:00:00 -0,1 -2,8 8 4 11 6 NNE 1020,4 10 0,0
14.04.2018 21:00:00 -0,6 -3,1 8 4 7 4 NE 1020,2 10 0,0
14.04.2018 20:00:00 2,2 -2,3 4 2 11 6 E 1019,4 10 0,0

tt = Temperatura
td = dewpoint
ff = velocità del vento
fx = gusts
dd = direzione del vento
ppp = reduced air pressure
vv = visibility
rr = precipitazioni

Stazioni seguenti

WeatherPro
AMSI
MeteoEarth